Weather in Seferihisar

Turkey     38°11′46″N   26°50′07″E
temp.,
°C
wind,
m/s
gust,
m/s
humid.,
%
clouds,
%
prec.,
mm/h
press.,
hPa
HPBL,
m
5 august, thu
thu500:00+27n46450 0.0 1011111
03:00+26n46490 0.0 101099
06:00+25n46540 0.0 1011102
09:00+31n58320 0.0 1010295
12:00+37n59200 0.0 10091016
15:00+40n79150 0.0 10072205
18:00+39nnw68150 0.0 10061439
21:00+30n33300 0.0 100631
6 august, fri
fri600:00+29n22300 0.0 100619
03:00+27nne22330 0.0 100516
06:00+27se01360 0.0 100411
09:00+33s23256 0.0 1004238
12:00+37ssw4616100 0.0 1003866
15:00+37sw6917100 0.0 1001949
18:00+34sw35265 0.0 1000655
21:00+26se11580 0.0 100115
7 august, sat
sat700:00+24s22760 0.0 100125
03:00+23nnw11630 0.0 100212
06:00+23nnw35740 0.0 1003124
09:00+27n612550 0.0 1005689
12:00+32n810380 0.0 10051137
15:00+33n710290 0.0 10051537
18:00+33nnw810260 0.0 10061622
21:00+26nw33520 0.0 100851
8 august, sun
sun800:00+25n512550 0.0 1009442
03:00+24n614640 0.0 1009597
06:00+23n612700 0.0 1010580
09:00+26nne812590 0.0 1011681
12:00+32n810360 0.0 10111298
15:00+35nnw810300 0.0 10101399
18:00+34nnw710290 0.0 10101233
21:00+30n713380 0.0 1011681
9 august, mon
mon900:00+26n511500 0.0 1012315
03:00+24n58640 0.0 1012218
06:00+22n510710 0.0 1012252
09:00+27n610460 0.0 1012409
12:00+33n79230 0.0 10121004
15:00+35nnw69170 0.0 10111244
18:00+36nnw69170 0.0 10101128
21:00+27nw34439 0.0 101161